User: anonymous   Login
Location: Unspecified
(0.0000°N, 0.0000°E)
Time: 10:26:25
(UTC+02:00)
Language:

Cosmos 1898 Rocket - Orbit

View from above orbital plane
View from above orbital plane
View from above satellite
View from above satellite

Ground track
Ground track

The orbit data is extracted from the following two-line orbital elements,

1 18586U 87098B   17147.84433451 -.00000034 +00000-0 -24108-5 0  9991
2 18586 074.0064 332.7949 0020521 032.1914 067.3746 14.36780228544139
Epoch (UTC): 27 May 2017 20:15:50
Eccentricity: 0.0020521
inclination: 74.0064°
perigee height: 754 km
apogee height: 784 km
right ascension of ascending node: 332.7949°
argument of perigee: 32.1914°
revolutions per day: 14.36780228
mean anomaly at epoch: 67.3746°
orbit number at epoch: 54413

The dashed part of the orbit path shows where the satellite is in the earth's shadow,  

DLR